Location: Ku?niki
(51.4449°N, 17.8974°E)
Time: 03:35:22
(UTC+00:00)

Cosmos 1844 - Pass Details

Date: 18 September 2020
Orbit: 824 x 866 km, 70.9° (Epoch: 22 October)

Event Time Altitude Azimuth Distance (km) Brightness Sun altitude
Rises 19:27:55 0° 205° (SSW) 3,412 6.8 -23.1°
Reaches altitude 10° 19:30:22 10° 204° (SSW) 2,474 6.0 -23.4°
Maximum altitude 19:36:03 82° 118° (ESE) 859 3.5 -24.1°
Drops below altitude 10° 19:41:43 10° 32° (NNE) 2,461 6.2 -24.8°
Sets 19:44:09 0° 31° (NNE) 3,394 6.9 -25.1°
